星链-31154 (STARLINK-31154 )

导读

STARLINK-31154是美国SpaceX公司星链星座的成员卫星,于2024年1月15日发射入轨,属于星链低轨宽带通信星座的组网卫星。卫星采用平板设计,配备太阳电池阵,以氪为工质霍尔推进器,支持自主避撞,预期寿命5-7年,退役后将坠入大气层焚毁,旨在为全球提供覆盖式宽带互联网接入服务。

基本信息
目录编号:
58799
目录名称:
STARLINK-31154
国际标识:
2024-012N
轨道中心:
EARTH
卫星名称:
星链-31154
卫星全名:
星链-31154 (STARLINK-31154 )
卫星状态:
已陨落 最后检测时间 2024-08-30
发射日期:
2024-01-15 UTC
国别 :
美国 (US)
星等 :
--
该卫星已列入 空间交会检测服务 Space Conjunction Data Service (SCDS) ,当前飞行风险评估等级: 无高风险
轨道信息
数据来源 国际轨道数据
星历时间: 2024-08-30T09:23:06+0800
轨道信息已过期743天
半长轴: 6566.529km
偏心率: 0.0010723
轨道倾角: 42.988°
近地点辐角 319.507°
升交点赤经 23.469°
平近点角 171.803°
近地点: 181.352km
远地点: 195.436km
周期: 88.260分钟
每日圈数: 16.315447
详细信息
固有亮度:
5
最大亮度:
0.3
卫星平台:
Starlink v2.0 mini
覆盖范围:
全球
运营商:
太空探索技术公司
运营商所在国:
美国
制造商(研发单位):
太空探索技术公司
制造商所在国:
美国
使用方式:
暂无
卫星简介
星链(Starlink)计划是由太空探索技术公司(SpaceX)提出的一个巨型低轨卫星互联网星座项目,计划在2019年至2024年间在太空搭建由约1.2万颗卫星组成的“星链”网络,其中1584颗将部署在地球上空550千米处的近地轨道,并从2020年开始工作。该卫星仍在工作。
与全量物体交会距离演化趋势
与全量物体交会风险概率演化趋势